{"data":{"norad_id":57087,"intl_designator":"2023-088AR","name":"STARLINK-6251","alt_names":[],"object_type":"PAYLOAD","status":"ACTIVE","operator":null,"country":"US","launch_date":"2023-06-22","launch_site_code":"AFWTR","launch_vehicle":null,"mission":null,"orbit_class":"UNKNOWN","rcs_meters":null,"size_class":null,"mass_kg":null,"dimensions":null,"purposes":["comms"],"wikipedia_slug":null,"has_3d_model":false,"image_url":null,"decayed_at":null,"tle_current":{"epoch":"2026-05-24T17:29:59.960544Z","epoch_age_seconds":98452,"freshness":"FRESH","line1":"1 57087U 23088AR  26144.72916621  .00001722  00000+0  72128-4 0  9994","line2":"2 57087  43.0064  26.3487 0001840 273.1615  86.9026 15.27571638162133","mean_motion":15.27571638,"eccentricity":0.000184,"inclination_deg":43.0064,"raan_deg":26.3487,"arg_perigee_deg":273.1615,"mean_anomaly_deg":86.9026,"bstar":7.2128e-5,"rev_number":16213,"period_min":94.26726473433,"perigee_km":481.81167214125,"apogee_km":484.33659783892,"semimajor_km":6861.2111349901,"source":"CELESTRAK","updated_at":"2026-05-25T13:38:18.216899Z"}}}